• In Czech Republic
  • List of Countries
  • For 7 days
  • Water Temperature
  • Satellite Maps
  • Weather Map
  • Weather Widgets
  • user-avatar
    Login

    Hourly Weather Zalaegerszeg

    Today, 16 December, Saturday

    Time Temperature Precipitation Wind Pressure Humidity
    00:00 +3°C° 0.4 mm 3 mps 736 mmHg 78%
    01:00 +2°C° 0 mm 3 mps 736 mmHg 79%
    02:00 +2°C° 0.2 mm 3 mps 736 mmHg 80%
    03:00 +2°C° 0.2 mm 3 mps 737 mmHg 80%
    04:00 +3°C° 0.2 mm 2 mps 737 mmHg 81%
    05:00 +3°C° 0.2 mm 2 mps 737 mmHg 82%
    06:00 +3°C° 0.2 mm 2 mps 738 mmHg 83%
    07:00 +3°C° 0 mm 2 mps 738 mmHg 86%
    08:00 +3°C° 0.1 mm 2 mps 739 mmHg 84%
    09:00 +4°C° 0.1 mm 2 mps 739 mmHg 82%
    10:00 +4°C° 0.1 mm 2 mps 740 mmHg 81%
    11:00 +5°C° 0 mm 2 mps 741 mmHg 77%
    12:00 +5°C° 0 mm 2 mps 741 mmHg 74%
    13:00 +6°C° 0 mm 2 mps 741 mmHg 70%
    14:00 +5°C° 0 mm 2 mps 742 mmHg 74%
    15:00 +6°C° 0 mm 1 mps 742 mmHg 77%
    16:00 +5°C° 0 mm 1 mps 743 mmHg 81%
    17:00 +5°C° 0 mm 1 mps 743 mmHg 82%
    18:00 +4°C° 0 mm 1 mps 744 mmHg 83%
    19:00 +4°C° 0 mm 1 mps 744 mmHg 84%
    20:00 +3°C° 0 mm 1 mps 745 mmHg 84%
    21:00 +3°C° 0 mm 1 mps 746 mmHg 84%
    22:00 +3°C° 0 mm 1 mps 746 mmHg 85%
    23:00 +3°C° 0 mm 1 mps 747 mmHg 85%

    Tomorrow, 17 December, Sunday

    Time Temperature Precipitation Wind Pressure Humidity
    00:00 +3°C° 0 mm 1 mps 747 mmHg 86%
    01:00 +1°C° 0 mm 2 mps 747 mmHg 87%
    02:00 +1°C° 0 mm 2 mps 748 mmHg 87%
    03:00 +1°C° 0 mm 2 mps 748 mmHg 86%
    04:00 +1°C° 0 mm 2 mps 748 mmHg 86%
    05:00 +1°C° 0 mm 2 mps 748 mmHg 85%
    06:00 -1°C° 0 mm 2 mps 749 mmHg 84%
    07:00 -1°C° 0 mm 2 mps 749 mmHg 83%
    08:00 +1°C° 0 mm 2 mps 750 mmHg 79%
    09:00 +1°C° 0 mm 3 mps 750 mmHg 75%
    10:00 +2°C° 0 mm 3 mps 751 mmHg 70%
    11:00 +2°C° 0 mm 3 mps 751 mmHg 67%
    12:00 +3°C° 0 mm 3 mps 750 mmHg 64%
    13:00 +4°C° 0 mm 3 mps 750 mmHg 60%
    14:00 +4°C° 0 mm 2 mps 751 mmHg 65%
    15:00 +3°C° 0 mm 2 mps 751 mmHg 69%
    16:00 +3°C° 0 mm 1 mps 751 mmHg 73%
    17:00 +3°C° 0 mm 1 mps 751 mmHg 74%
    18:00 +2°C° 0 mm 1 mps 752 mmHg 76%
    19:00 +2°C° 0 mm 1 mps 752 mmHg 77%
    20:00 +2°C° 0 mm 1 mps 753 mmHg 78%
    21:00 +1°C° 0 mm 2 mps 753 mmHg 78%
    22:00 +1°C° 0 mm 2 mps 753 mmHg 78%
    23:00 +1°C° 0 mm 2 mps 754 mmHg 79%

    Day after tomorrow, 18 December, Monday

    Time Temperature Precipitation Wind Pressure Humidity
    00:00 +1°C° 0 mm 2 mps 754 mmHg 80%
    01:00 -1°C° 0 mm 2 mps 754 mmHg 81%
    02:00 -1°C° 0 mm 2 mps 754 mmHg 82%
    03:00 -1°C° 0 mm 2 mps 754 mmHg 83%
    04:00 -1°C° 0 mm 2 mps 754 mmHg 84%
    05:00 -1°C° 0 mm 2 mps 754 mmHg 84%
    06:00 -1°C° 0 mm 2 mps 754 mmHg 84%
    07:00 -1°C° 0 mm 2 mps 755 mmHg 84%
    08:00 -1°C° 0.1 mm 2 mps 755 mmHg 81%
    09:00 +1°C° 0.1 mm 2 mps 755 mmHg 77%
    10:00 +1°C° 0.1 mm 3 mps 755 mmHg 74%
    11:00 +1°C° 0 mm 3 mps 755 mmHg 70%
    12:00 +3°C° 0 mm 2 mps 754 mmHg 66%
    13:00 +3°C° 0 mm 2 mps 754 mmHg 63%
    14:00 +2°C° 0 mm 2 mps 754 mmHg 67%
    15:00 +3°C° 0 mm 1 mps 754 mmHg 71%
    16:00 +2°C° 0 mm 1 mps 754 mmHg 76%
    17:00 +1°C° 0 mm 1 mps 754 mmHg 77%
    18:00 0°C° 0 mm 0 mps 755 mmHg 79%
    19:00 0°C° 0 mm 0 mps 755 mmHg 80%
    20:00 0°C° 0 mm 0 mps 756 mmHg 81%
    21:00 -1°C° 0 mm 0 mps 756 mmHg 81%
    22:00 -1°C° 0 mm 0 mps 757 mmHg 81%
    23:00 -1°C° 0 mm 0 mps 757 mmHg 81%

    19 December, Tuesday

    Time Temperature Precipitation Wind Pressure Humidity
    00:00 -1°C° 0 mm 0 mps 757 mmHg 82%
    01:00 0°C° 0 mm 1 mps 758 mmHg 82%
    02:00 -1°C° 0 mm 0 mps 758 mmHg 82%
    03:00 -1°C° 0 mm 0 mps 758 mmHg 82%
    04:00 -1°C° 0 mm 0 mps 758 mmHg 82%
    05:00 -1°C° 0 mm 0 mps 758 mmHg 82%
    06:00 -1°C° 0 mm 0 mps 759 mmHg 82%
    07:00 -1°C° 0 mm 0 mps 759 mmHg 82%
    08:00 +1°C° 0 mm 1 mps 759 mmHg 78%
    09:00 +2°C° 0 mm 1 mps 760 mmHg 74%
    10:00 +2°C° 0 mm 1 mps 760 mmHg 70%
    11:00 +3°C° 0 mm 1 mps 760 mmHg 69%
    12:00 +3°C° 0 mm 1 mps 760 mmHg 67%
    13:00 +4°C° 0 mm 1 mps 760 mmHg 66%
    14:00 +3°C° 0 mm 1 mps 760 mmHg 70%
    15:00 +3°C° 0 mm 1 mps 760 mmHg 73%
    16:00 +2°C° 0 mm 1 mps 760 mmHg 77%
    17:00 +2°C° 0.1 mm 1 mps 760 mmHg 79%
    18:00 +2°C° 0.1 mm 1 mps 760 mmHg 80%
    19:00 +2°C° 0.1 mm 1 mps 760 mmHg 81%
    20:00 +2°C° 0.1 mm 1 mps 760 mmHg 82%
    21:00 +2°C° 0.1 mm 1 mps 761 mmHg 84%
    22:00 +1°C° 0.1 mm 2 mps 761 mmHg 85%
    23:00 +1°C° 0 mm 2 mps 760 mmHg 85%

    20 December, Wednesday

    Time Temperature Precipitation Wind Pressure Humidity
    00:00 +1°C° 0 mm 2 mps 760 mmHg 86%
    01:00 +1°C° 0 mm 2 mps 760 mmHg 87%
    02:00 +1°C° 0.1 mm 2 mps 759 mmHg 86%
    03:00 +1°C° 0.1 mm 2 mps 759 mmHg 85%
    04:00 +1°C° 0.1 mm 2 mps 758 mmHg 85%
    05:00 +1°C° 0.6 mm 2 mps 758 mmHg 85%
    06:00 +1°C° 0.6 mm 2 mps 758 mmHg 85%
    07:00 +1°C° 0.6 mm 2 mps 757 mmHg 84%
    08:00 +2°C° 1 mm 2 mps 757 mmHg 85%
    09:00 +2°C° 1 mm 2 mps 757 mmHg 86%
    10:00 +2°C° 1 mm 2 mps 757 mmHg 87%
    11:00 +2°C° 0.8 mm 2 mps 756 mmHg 89%
    12:00 +2°C° 0.8 mm 2 mps 756 mmHg 91%
    13:00 +2°C° 0.8 mm 2 mps 756 mmHg 92%
    14:00 +2°C° 0.6 mm 2 mps 756 mmHg 93%
    15:00 +2°C° 0.6 mm 2 mps 756 mmHg 93%
    16:00 +2°C° 0.6 mm 2 mps 756 mmHg 94%
    17:00 +3°C° 0.6 mm 2 mps 756 mmHg 94%
    18:00 +3°C° 0.6 mm 2 mps 756 mmHg 95%
    19:00 +3°C° 0.6 mm 2 mps 757 mmHg 96%
    20:00 +3°C° 0.4 mm 2 mps 757 mmHg 96%
    21:00 +3°C° 0.4 mm 2 mps 757 mmHg 95%
    22:00 +3°C° 0.4 mm 2 mps 757 mmHg 95%
    23:00 +4°C° 0.4 mm 2 mps 758 mmHg 95%

    21 December, Thursday

    Time Temperature Precipitation Wind Pressure Humidity
    00:00 +4°C° 0.4 mm 2 mps 758 mmHg 95%
    01:00 +4°C° 0.4 mm 2 mps 758 mmHg 94%
    02:00 +4°C° 0.5 mm 2 mps 758 mmHg 94%
    03:00 +4°C° 0.5 mm 2 mps 758 mmHg 94%
    04:00 +4°C° 0.5 mm 2 mps 758 mmHg 94%
    05:00 +4°C° 0.4 mm 2 mps 758 mmHg 93%
    06:00 +4°C° 0.4 mm 2 mps 758 mmHg 93%
    07:00 +4°C° 0.4 mm 2 mps 759 mmHg 92%
    08:00 +5°C° 0.1 mm 2 mps 759 mmHg 92%
    09:00 +5°C° 0.1 mm 2 mps 759 mmHg 92%
    10:00 +5°C° 0.1 mm 2 mps 759 mmHg 93%
    11:00 +5°C° 0.5 mm 2 mps 759 mmHg 93%
    12:00 +5°C° 0.5 mm 2 mps 758 mmHg 94%
    13:00 +5°C° 0.5 mm 2 mps 758 mmHg 95%
    14:00 +5°C° 0.3 mm 2 mps 758 mmHg 94%
    15:00 +5°C° 0.3 mm 2 mps 758 mmHg 94%
    16:00 +5°C° 0.3 mm 2 mps 758 mmHg 94%
    17:00 +5°C° 0.3 mm 2 mps 758 mmHg 94%
    18:00 +6°C° 0.3 mm 2 mps 758 mmHg 94%
    19:00 +6°C° 0.3 mm 2 mps 758 mmHg 94%
    20:00 +6°C° 0 mm 2 mps 758 mmHg 93%
    21:00 +6°C° 0 mm 2 mps 758 mmHg 93%
    22:00 +5°C° 0 mm 2 mps 758 mmHg 92%
    23:00 +5°C° 0 mm 2 mps 757 mmHg 91%
    Show more